Location: lozzo di cadore
(46.4899°N, 12.4508°E)
Time: 14:23:07
(UTC+02:00)

Envisat - Pass Details

Date: 07 May 2025
Orbit: 761 x 763 km, 98.3° (Epoch: 14 May)

Event Time Altitude Azimuth Distance (km) Brightness Sun altitude
Rises 04:41:18 0° 9° (N) 3,234 7.0 -10.4°
Reaches altitude 10° 04:43:39 10° 5° (N) 2,304 6.1 -10.1°
Maximum altitude 04:48:33 51° 290° (WNW) 950 3.3 -9.4°
Drops below altitude 10° 04:53:25 10° 215° (SW) 2,288 4.9 -8.7°
Enters shadow 04:53:36 - 215° (SW) 2,359 4.9 -8.7°
